Voltar ao catálogo

STARLINK-3795

AtivoComunicaçõesVLEO
NORAD 52264·PAYLOAD·🇺🇸 United States

Lançado Apr 21, 2022 de Cape Canaveral Space Force Station

Loading…

Próximas Passagens (próximas 24 horas)

TLE

AtualizadoSource: CelesTrak SupGP

Época: Sep 15, 2026, 02:01 UTC

1 52264C 22041D   26258.08451389  .00044665  00000+0  13198-2 0  2585
2 52264  53.1587 323.2871 0001153  93.1762  10.3263 15.34365561    19

Acompanhe STARLINK-3795 em tempo real com AllMySat

Download on the App Store